Weather Service Report


553 
ASUS44 KLUB 100710
RWRTX 
WEST TEXAS WEATHER ROUNDUP
NATIONAL WEATHER SERVICE LUBBOCK TX
100 AM CST WED FEB 10 2016

NOTE: "FAIR" INDICATES FEW OR NO CLOUDS BELOW 12,000 FEET WITH NO
SIGNIFICANT WEATHER AND/OR OBSTRUCTIONS TO VISIBILITY.

TXZ004-006>008-010-012-014-016-OKZ002-100800-
TEXAS PANHANDLE/OKLAHOMA PANHANDLE
  
CITY           SKY/WX    TMP DP  RH WIND       PRES   REMARKS
AMARILLO       CLEAR     40  23  50 NW6       30.31F                  
BORGER         CLEAR     40  25  55 W6        30.30F                  
CANADIAN       CLEAR     28  25  87 S3        30.29F                  
DALHART        CLOUDY    34  20  56 NW7       30.32F WCI  28          
DUMAS          CLEAR     32  22  67 W10       30.31S WCI  23          
GUYMON         CLEAR     36  25  64 W12       30.26F WCI  28          
PAMPA          CLEAR     38  28  65 W6        30.29F WCI  34          
PERRYTON       CLEAR     32  26  78 W8        30.26F WCI  25          
$$

TXZ026-029-035-045-048-100800-
SOUTHERN PANHANDLE/SOUTH PLAINS/ROLLING PLAINS
  
CITY           SKY/WX    TMP DP  RH WIND       PRES   REMARKS
CHILDRESS      PTCLDY    36  25  64 SE9       30.31F WCI  29          
SEMINOLE       CLEAR     39  21  48 W7        30.36F WCI  34          
LUBBOCK        CLEAR     37  19  48 W7        30.32F WCI  32          
PLAINVIEW      CLOUDY    31  17  56 SW8       30.31F WCI  23          
SNYDER           N/A     47  23  38 NW5       30.33S                  
$$

TXZ052-054-060>062-072-078-127-140-154-169-100800-
PERMIAN BASIN/CONCHO VALLEY/BIG COUNTRY/EDWARDS PLATEAU  
  
CITY           SKY/WX    TMP DP  RH WIND       PRES   REMARKS
ABILENE        PTCLDY    43  30  60 SE6       30.32S                  
BIG SPRING     CLEAR     38  21  50 SE7       30.36F WCI  33          
BROWNWOOD      PTCLDY    36  28  75 MISG      30.33R                  
JUNCTION       PTCLDY    36  25  64 W5        30.33F WCI  32          
MIDLAND        CLEAR     38  25  59 W5        30.35S WCI  34          
ODESSA         CLEAR     42  24  49 W5        30.35F                  
SAN ANGELO     PTCLDY    37  24  59 W5        30.32F WCI  33          
SONORA         PTCLDY    32  25  74 CALM      30.39S                  
SWEETWATER     CLEAR     48  22  35 SW9       30.34S                  
WINK           CLEAR     33  20  58 N7        30.34F WCI  27          
$$

TXZ055-058-074-075-080-082-100800-
FAR WEST/SOUTHWEST MOUNTAINS/TRANS PECOS
  
CITY           SKY/WX    TMP DP  RH WIND       PRES   REMARKS
ALPINE         CLOUDY    34  16  47 W9        30.42F WCI  27          
DRYDEN           N/A     48  19  31 W9        30.33F                  
EL PASO        CLEAR     44  18  35 CALM      30.34S                  
FORT STOCKTON  CLEAR     42  22  44 S10       30.35F                  
GUADALUPE PASS CLOUDY    45  20  36 E13       30.39F                  
MARFA          CLOUDY    31  16  54 NW6       30.40S WCI  25          
PECOS          CLEAR     37  23  57 N5        30.34F WCI  33          
PRESIDIO       FAIR      50  16  25 N10       30.33S                  
$$

TXZ014-016-019-021>030-083-100800
TEXAS TECH WEST TEXAS MESONET/TEXAS PANHANDLE/NORTHERN SOUTH PLAINS
  
CITY           SKY/WX    TMP DP  RH WIND       PRES   REMARKS
ABERNATHY 5ENE   N/A     29  20  68 NW7       30.32F WCI  22          
AMARILLO 9NNE    N/A     26  19  74 S2        30.31F                  
AMARILLO 7SSE    N/A     28  20  71 SW9       30.32S WCI  19          
AMHERST 1NE      N/A     32  15  50 W10       30.33F WCI  23          
BOOTLEG 11WNW    N/A     37  16  42 W7        30.35F WCI  31          
CANADIAN 6E      N/A     28  22  79 SW1       30.26F                  
CAPROCK CYN SP   N/A     40  28  60 W6        30.31F                  
CHILDRESS 2NNE   N/A     35  26  69 SE9       30.31F WCI  27          
CLARENDON 2WSW   N/A     33  27  77 SW3       30.30F                  
CLAUDE 12SW      N/A     42  22  46 SW1       30.30F                  
DIMMITT 2NE      N/A     34  17  50 W9        30.33F WCI  26          
FLOYDADA 2NNE    N/A     33  21  60 SW7       30.31F WCI  27          
FRIONA 2NE       N/A     26  15  63 W9        30.34F WCI  17          
GOODLETT 3W      N/A     34  26  70 S5        30.32F WCI  30          
HART 3N          N/A     31  16  54 NW8       30.32F WCI  23          
HEREFORD 2NW     N/A     30  13  48 W6        30.32F WCI  24          
MCLEAN 1E        N/A     39  26  58 S6        30.28F WCI  35          
MEMPHIS 1NE      N/A     32  25  76 N1        30.32S                  
MULESHOE 2SSW    N/A     26  14  62 SW7       30.34F WCI  18          
OLTON 6S         N/A     34  17  50 W9        30.32F WCI  26          
PALO DURO SP     N/A     37  20  50 W10       30.32F WCI  30          
PAMPA 2E         N/A     37  26  64 SW6       30.28F WCI  33          
PLAINVIEW 1S     N/A     32  19  59 SW3       30.32F                  
SILVERTON 7ESE   N/A     29  19  68 W7        30.32F WCI  21          
TULIA 2ENE       N/A     34  22  61 W7        30.32F WCI  27          
TURKEY 2WSW      N/A     42  29  58 SW10      30.30F                  
UMBARGER 3NNE    N/A     27  15  62 W7        30.32F WCI  19          
$$

TXZ033>036-039>041-045>048-100800
TEXAS TECH WEST TEXAS MESONET/SOUTH PLAINS  
  
CITY           SKY/WX    TMP DP  RH WIND       PRES   REMARKS
AIKEN 3WSW       N/A     30  18  60 W6        30.33F WCI  24          
ANDREWS 2NE      N/A     42  22  44 SW7       30.35F                  
ANTON 6SSW       N/A     33  16  48 W8        30.33F WCI  27          
BROWNFIELD 2S    N/A     38  18  44 W9        30.34F WCI  32          
DENVR CTY 7WNW   N/A     34  18  53 W9        30.35F WCI  26          
GAIL 2ESE        N/A     52  19  27 W10       30.31F                  
LAMESA 2SE       N/A     39  20  47 W8        30.35S WCI  33          
LEVELLAND 4S     N/A     28  15  57 W7        30.34S WCI  21          
LUBBOCK 3WNW     N/A     40  18  42 W6        30.33F                  
MORTON 1ENE      N/A     31  15  51 W8        30.34F WCI  24          
ODONNELL 1N      N/A     32  18  56 W7        30.34S WCI  26          
PLAINS 3N        N/A     26  16  65 W9        30.35F WCI  17          
RALLS 1SE        N/A     37  26  64 SW3       30.33F                  
REESE CENTER     N/A     37  18  46 W9        30.33F WCI  30          
SEAGRAVES 1SW    N/A     34  20  56 W7        30.35S WCI  28          
SEMINOLE 2NNE    N/A     38  19  47 W7        30.35F WCI  32          
SNYDER 3E        N/A     45  25  45 N3        30.32S                  
SUNDOWN 8SW      N/A     32  15  49 W8        30.35S WCI  25          
TAHOKA 3NNE      N/A     34  18  50 NW7       30.33F WCI  28          
WOLFFORTH 6SSW   N/A     37  15  41 W8        30.34S WCI  30          
$$

TXZ031-032-036>038-042>044-100800-
TEXAS TECH WEST TEXAS MESONET/ROLLING PLAINS 
  
CITY           SKY/WX    TMP DP  RH WIND       PRES   REMARKS
ASPERMONT 3NE    N/A     34  27  73 NE3       30.32S                  
FLUVANNA 3WNW    N/A     47  20  34 NW5       30.32F                  
GRAHAM 5SSW      N/A     42  20  42 NW13      30.32F                  
GUTHRIE 10WSW    N/A     42  28  59 N5        30.32S                  
HASKELL 1NW      N/A     35  27  70 NE3       30.33S                  
JAYTON 1SSE      N/A     37  29  70 W5        30.31F WCI  34          
KNOX CITY 3NW    N/A     35  28  75 NE5       30.35S WCI  31          
LK A HENRY 1NW   N/A     37  25  60 W5        30.32S WCI  34          
NORTHFIELD 1S    N/A     42  31  63 S2        30.32F                  
ODELL 4ENE       N/A     33  26  76 SE3       30.33F                  
PADUCAH 10SW     N/A     37  29  74 E2        30.33S                  
POST 1NE         N/A     41  24  50 W7        30.32F                  
RRING SPRGS 3N   N/A     41  30  64 W8        30.31S                  
SEYMOUR 3NW      N/A     36  27  69 SE1       30.33F                  
SPUR 1W          N/A     34  26  74 NW7       30.31F WCI  28          
WEINERT 2NNE     N/A     36  27  70 E2        30.34S                  
WHITE RVR 6NE    N/A     45  28  51 SW5       30.31F                  
$$

TXZ052-054-060>062-072-078-127-140-154-169-100800-
TEXAS TECH WEST TEXAS MESONET/PERMIAN BASIN/
CONCHO VALLEY/BIG COUNTRY/EDWARDS PLATEAU
  
CITY           SKY/WX    TMP DP  RH WIND       PRES   REMARKS
COYANOSA 2N      N/A     34  23  65 E3        30.35S                  
JUNCTION 1SSW    N/A     35  25  68 S3        30.35S                  
MERTZON 3NNE     N/A     34  23  65 S6        30.33F WCI  28          
SAN ANGELO 7NW   N/A     36  21  53 NW5       30.32S WCI  32          
STRLNG CT 4WSW   N/A     32  23  71 SW2       30.34S                  
ST LAWRNCE 5SW   N/A     38  21  50 SW7       30.34S WCI  32          
SWEETWATR 11SW   N/A     45  23  41 SW3       30.33S                  
WALL 1E          N/A     40  23  49 SW7       30.32F                  
$$

TXZ055-058-074-075-080-082-100800-
TEXAS TECH WEST TEXAS MESONET/FAR WEST/SOUTHWEST MOUNTAINS/TRANS PECOS
  
CITY           SKY/WX    TMP DP  RH WIND       PRES   REMARKS
PRSMN GAP BBNP   N/A     56  17  22 N14       30.33F                  
GUADLPE MTN NP   N/A     37  15  40 W3        30.40F                  
$$
  

Return to Home page


Western Regional Climate Center, wrcc@dri.edu